Regional Weather Roundup
Issued by NWS Cleveland, OH

Home | Current Version | Previous Version | Graphics & Text | Print | Product List | Glossary On
Versions: 1 2 3 4 5 6 7 8 9 10 11 12 13 14 15 16 17 18 19 20 21 22 23 24 25 26 27 28 29 30 31 32 33 34 35 36 37 38 39 40 41 42 43 44 45 46 47 48 49 50
000
ASUS41 KCLE 272300
RWRCLE
OHIO REGIONAL WEATHER ROUNDUP
NATIONAL WEATHER SERVICE WILMINGTON, OH
700 PM EDT FRI MAY 27 2016

NOTE: "FAIR" INDICATES FEW OR NO CLOUDS BELOW 12,000 FEET WITH NO
SIGNIFICANT WEATHER AND/OR OBSTRUCTIONS TO VISIBILITY.

OHZ001>008-015>018-024>027-034-035-043-044-280000-
   NORTHWEST OHIO

CITY           SKY/WX    TMP DP  RH WIND       PRES   REMARKS
DEFIANCE       FAIR      86  60  41 S3        29.92F
FINDLAY        FAIR      87  58  37 S15       29.93F
TOLEDO EXPRESS FAIR      85  60  42 S5        29.92F
TOLEDO EXEC    FAIR      88  59  37 SW8       29.93F
LIMA           FAIR      85  59  41 S14       29.94F
$$

OHZ009>014-019>023-028>033-038-089-280000-
   NORTHEAST OHIO

CITY           SKY/WX    TMP DP  RH WIND       PRES   REMARKS
CLE-HOPKINS    PTSUNNY   84  63  49 N5        29.99F
CLE-LAKEFRONT  FAIR      72  64  76 NE8       29.97F
CUY CO. ARPT   PTSUNNY   86  66  51 NE5       29.99F
LORAIN-ELYRIA  FAIR      84  61  45 SW6       29.97F
ASHTABULA      FAIR      80  62  54 NE3       30.01F
AKRON-CANTON   PTSUNNY   84  61  45 SW8       30.00F
WOOSTER        NOT AVBL
MANSFIELD      FAIR      84  63  49 S6        30.00F
YOUNGSTOWN     CLOUDY    83  61  47 SW8       30.01F
$$

OHZ042-051>053-060>062-070>072-077>081-280000-
  SOUTHWEST OHIO

CITY           SKY/WX    TMP DP  RH WIND       PRES   REMARKS
CINC-COVINGTON PTSUNNY   83  64  52 SW7       29.97F
CINC-LUNKEN    FAIR      80  67  64 S7        29.96F
HAMILTON       FAIR      85  63  47 VRB6      29.96F
DAYTON         NOT AVBL
WRIGHT-PAT AFB NOT AVBL
DAYTON GENERAL FAIR      82  61  48 S10       29.97F
WILMINGTON     FAIR      83  65  54 SW8       29.98F
$$

OHZ036-037-039>041-045>050-054>059-063>069-073>076-082>088-280000-
  CENTRAL AND SOUTHEAST OHIO

CITY           SKY/WX    TMP DP  RH WIND       PRES   REMARKS
COLUMBUS       PTSUNNY   86  60  41 S7        29.97F
OSU AIRPORT    NOT AVBL
BOLTON FIELD   NOT AVBL
RICKENBACK AFB NOT AVBL
NEWARK         FAIR      86  63  45 S6        29.98F
MARION         FAIR      85  59  41 SW9       29.97F
LANCASTER      FAIR      85  63  47 S8        29.99F
ZANESVILLE     FAIR      86  65  49 S6        30.00F
NEW PHILLY     FAIR      88  61  40 W5        30.00F
$$




USA.gov is the U.S. government's official web portal to all federal, state and local government web resources and services.